SCP
0 0 0 0 0 0 0 0 0 0 0 0 0 0 0 0 0 0 0 0 0 0 0 0 0 0 0 0 0 0 0 0 0 0 0 0 0 0 0 0 0 1 1
0 0 0 0 0 0 0 0 0 0 0 0 0 0 0 0 0 0 0 0 0 0 0 0 0 0 0 0 0 0 0 0 0 0 0 0 0 0 0 0 0 1 1
0 0 0 0 0 0 0 0 0 0 0 0 0 0 0 0 0 0 0 0 0 0 0 0 0 0 0 0 0 0 0 0 0 0 0 0 0 0 0 0 0 0 1
0 0 0 0 0 0 0 0 0 0 0 0 0 0 0 0 0 0 0 0 0 0 0 0 0 0 0 0 0 0 0 0 0 0 0 0 0 0 0 0 0 0 0
0 0 0 0 0 0 0 0 0 0 0 0 0 0 0 0 0 0 0 0 0 0 0 0 0 0 0 0 0 0 0 0 0 0 0 0 0 0 0 0 0 0 0
0 0 0 0 0 0 0 0 0 0 0 0 0 0 0 0 0 0 0 0 0 0 0 0 0 0 0 0 0 0 0 0 0 0 0 0 0 0 0 0 0 0 0
0 0 0 0 0 0 0 0 0 0 0 0 0 0 0 0 0 0 0 0 0 0 0 0 0 0 0 0 0 0 0 0 0 0 0 0 0 0 0 0 0 0 0
0 0 0 0 0 0 0 0 0 0 0 0 0 0 0 0 0 0 0 0 0 0 0 0 0 0 0 0 0 0 0 0 0 0 0 0 0 0 0 0 0 0 0
0 0 0 0 0 0 0 0 0 0 0 0 0 0 0 0 0 0 0 0 0 0 0 0 0 0 0 0 0 0 0 0 0 0 0 0 0 0 0 0 0 0 0
0 0 0 0 0 0 0 0 0 0 0 0 0 0 0 0 0 0 0 0 0 0 0 0 0 0 0 0 0 0 0 0 0 0 0 0 0 0 0 0 0 0 0
0 0 0 0 0 0 0 0 0 0 0 0 0 0 0 0 0 0 0 0 0 0 0 0 0 0 0 0 0 0 0 0 0 0 0 0 0 0 0 0 0 0 0
0 0 0 0 0 0 0 0 0 0 0 0 0 0 0 0 0 0 0 0 0 0 0 0 0 0 0 0 0 0 0 0 0 0 0 0 0 0 0 0 0 0 0
0 0 0 0 0 0 0 0 0 0 0 0 0 0 0 0 0 0 0 0 0 0 0 0 0 0 0 0 0 0 0 0 0 0 0 0 0 0 0 0 0 0 0
0 0 0 0 0 0 0 0 0 0 0 0 0 0 0 0 0 0 0 0 0 0 0 0 0 0 0 0 0 0 0 0 0 0 0 0 0 0 0 0 0 0 0
0 0 0 0 0 0 0 0 0 0 0 0 0 0 0 0 0 0 0 0 0 0 0 0 0 0 0 0 0 0 0 0 0 0 0 0 0 0 0 0 0 0 0
0 0 0 0 0 0 0 0 0 0 0 0 0 0 0 0 0 0 0 0 0 0 0 0 0 0 0 0 0 0 0 0 0 0 0 0 0 0 0 0 0 0 0
0 0 0 0 0 0 0 0 0 0 0 0 0 0 0 0 0 0 0 0 0 0 0 0 0 0 0 0 0 0 0 0 0 0 0 0 0 0 0 0 0 0 0
0 0 0 0 0 0 0 0 0 0 0 0 0 0 0 0 0 0 0 0 0 0 0 0 0 0 0 0 0 0 0 0 0 0 0 0 0 0 0 0 0 0 0
0 0 0 0 0 0 0 0 0 0 0 0 0 0 0 0 0 0 0 0 0 0 0 0 0 0 0 0 0 0 0 0 0 0 0 0 0 0 0 0 0 0 0
0 0 0 0 0 0 0 0 0 0 0 0 0 0 0 0 0 0 0 0 0 0 0 0 0 0 0 0 0 0 0 0 0 0 0 0 0 0 0 0 0 0 0
0 0 0 0 0 0 0 0 0 0 0 0 0 0 0 0 0 0 0 0 0 0 0 0 0 0 0 0 0 0 0 0 0 0 0 0 0 0 0 0 0 0 0
0 0 0 0 0 0 0 0 0 0 0 0 0 0 0 0 0 0 0 0 0 0 0 0 0 0 0 0 0 0 0 0 0 0 0 0 0 0 0 0 0 0 0
0 0 0 0 0 0 0 0 0 0 0 0 0 0 0 0 0 0 0 0 0 0 0 0 0 0 0 0 0 0 0 0 0 0 0 0 0 0 0 0 0 0 0
0 0 0 0 0 0 0 0 0 0 0 0 0 0 0 0 0 0 0 0 0 0 0 0 0 0 0 0 0 0 0 0 0 0 0 0 0 0 0 0 0 0 0
0 0 0 0 0 0 0 0 0 0 0 0 0 0 0 0 0 0 0 0 0 0 0 0 0 0 0 0 0 0 0 0 0 0 0 0 0 0 0 0 0 0 0
0 0 0 0 0 0 0 0 0 0 0 0 0 0 0 0 0 0 0 0 0 0 0 0 0 0 0 0 0 0 0 0 0 0 0 0 0 0 0 0 0 0 0
Wind_Speed
7 9 9 9 8 7 7 6 6 4 3 2 1 1 1 1 1 1 1 1 1 1 1 1 2 1 0 1 1 0 1 1 0 1 2 2 1 1 1 1 1 2 2
6 8 8 8 8 8 7 6 6 5 4 2 2 2 1 1 1 1 1 1 1 2 1 1 1 1 1 1 1 1 0 1 1 1 1 2 3 2 1 1 2 2 1
13 11 9 8 8 8 8 7 6 6 5 3 2 1 2 2 2 2 2 2 2 2 1 1 1 1 0 1 1 0 1 0 1 1 2 2 1 2 2 1 1 1 1
10 10 10 9 9 8 7 7 7 6 5 4 3 2 2 1 2 2 2 3 2 2 1 1 1 1 0 1 1 1 1 2 0 1 0 1 2 1 1 2 1 1 1
11 12 11 10 9 8 7 7 7 6 5 4 4 3 2 2 1 1 2 2 2 2 2 1 1 1 1 1 0 0 1 2 2 1 0 1 1 1 1 1 2 2 1
10 10 8 7 6 6 6 7 7 5 5 4 4 4 3 2 1 1 1 2 2 2 3 2 1 1 0 1 0 0 1 1 2 1 1 2 1 1 1 1 1 1 1
9 9 9 9 8 8 7 7 7 6 5 4 4 4 4 3 3 2 1 1 1 2 3 2 1 1 1 1 0 0 1 1 2 2 1 1 1 2 2 2 1 0 1
9 10 11 10 10 9 8 8 8 6 5 5 4 3 4 2 2 2 2 2 2 2 2 2 2 1 1 0 1 1 0 1 1 1 2 1 1 1 2 2 2 1 1
9 10 10 10 10 10 9 9 9 6 6 5 4 3 3 3 2 2 1 1 2 2 1 1 1 1 1 1 1 1 0 1 1 1 1 1 1 1 1 2 2 3 2
8 8 9 10 10 9 8 8 8 8 6 6 5 4 3 3 3 2 1 1 1 1 1 1 1 1 1 1 1 1 0 1 0 1 1 1 0 1 1 1 1 2 3
9 9 9 9 9 7 7 7 7 6 6 6 5 4 3 3 3 2 2 1 1 1 1 1 1 1 1 1 1 1 1 1 1 1 1 0 1 1 1 1 1 2 2
8 8 9 8 8 8 8 8 8 7 7 6 5 5 4 3 3 2 2 1 1 1 0 0 1 1 1 1 1 1 1 1 1 1 1 0 1 1 1 1 1 1 2
5 6 7 8 9 9 9 8 8 8 7 6 6 5 4 4 4 3 2 2 1 1 0 1 1 0 0 1 1 1 1 1 1 1 1 1 2 2 1 1 1 1 1
4 5 7 8 9 9 9 9 8 8 8 7 6 6 6 5 5 4 3 2 2 1 1 1 1 1 1 1 1 1 2 1 1 1 1 1 2 2 2 2 1 2 2
2 5 6 7 8 8 8 8 8 8 8 8 7 7 6 5 4 4 3 3 2 2 2 1 0 0 1 1 1 1 2 2 2 1 1 1 2 2 2 2 2 2 2
3 4 5 6 8 9 9 9 9 9 8 9 9 7 6 6 5 5 4 3 3 2 2 2 1 1 1 2 4 3 2 1 1 1 1 1 1 1 2 3 3 3 3
4 4 5 7 8 9 10 11 11 9 9 9 8 8 7 7 6 6 5 4 4 3 2 2 2 2 2 2 3 4 2 2 1 0 0 1 1 1 1 2 3 2 1
5 5 5 5 6 7 7 9 8 9 10 9 9 9 8 8 7 6 6 5 4 3 3 3 3 2 2 3 3 4 3 2 1 0 0 0 1 1 1 2 2 2 2
5 5 5 5 4 5 6 7 8 9 10 10 10 10 10 9 8 7 7 5 4 4 4 3 4 3 3 3 4 5 3 2 1 1 0 1 0 0 3 3 3 2 2
6 5 4 2 2 4 4 6 8 9 11 12 12 11 10 10 10 9 7 5 5 5 4 4 4 4 3 4 5 6 3 3 1 0 1 1 1 2 4 3 3 2 1
7 6 5 4 4 3 3 6 7 10 12 10 9 9 10 11 10 8 6 5 5 4 4 4 3 3 4 4 5 7 4 4 3 1 0 1 2 3 4 4 3 2 2
8 7 6 6 5 2 3 5 8 9 7 7 9 10 10 10 9 8 7 6 6 5 4 3 2 2 2 3 4 6 6 6 4 3 2 1 3 4 5 3 4 5 5
8 7 6 7 6 4 4 7 8 5 5 6 9 9 10 9 8 9 9 6 6 5 5 4 4 3 2 2 4 5 7 7 4 3 4 4 5 5 4 6 7 5 3
8 7 7 8 8 7 6 7 6 5 5 7 8 7 9 8 7 7 7 7 7 6 6 6 5 4 3 2 2 2 3 5 4 3 4 7 7 5 5 5 4 3 3
8 7 7 8 9 9 8 7 5 4 6 6 7 7 7 8 8 6 6 7 7 8 8 7 7 7 6 6 8 6 4 4 5 5 3 3 3 3 3 3 3 3 3
8 8 8 9 9 10 9 8 6 5 6 6 6 6 5 6 6 6 3 1 3 8 11 11 9 6 8 10 10 10 9 9 10 7 4 3 3 3 3 3 2 2 2
Wind_Direction
176 164 158 153 147 149 147 148 146 153 133 110 109 91 313 300 304 289 296 316 317 328 345 321 326 342 350 306 309 319 334 320 354 43 353 329 293 251 214 193 190 211 206
163 165 160 158 159 161 158 155 156 157 153 155 171 186 199 243 258 289 322 325 319 326 337 336 318 315 327 341 344 44 54 342 49 101 70 356 350 332 271 193 196 209 200
175 173 169 171 166 167 168 162 163 160 161 153 122 71 46 19 357 331 315 305 298 303 317 327 302 295 259 271 290 163 144 152 327 102 130 134 239 308 326 289 220 198 193
175 174 173 175 176 176 170 159 160 161 162 151 138 138 150 204 245 252 271 293 294 292 303 318 310 299 280 267 269 182 163 140 128 329 69 151 164 133 338 338 328 253 193
179 181 181 181 177 170 164 159 154 159 164 160 153 150 163 212 253 273 296 306 305 302 302 313 323 312 284 265 274 171 145 147 154 155 142 74 63 108 135 332 334 348 319
182 183 179 168 165 162 156 153 155 166 170 162 158 163 173 188 217 290 306 307 304 304 306 322 323 299 279 255 244 185 157 161 157 154 146 144 141 165 145 163 279 316 308
174 173 171 171 169 166 163 159 160 171 177 166 172 177 179 182 196 228 234 251 280 286 292 311 307 301 279 258 177 119 149 165 158 164 166 163 174 167 153 144 153 35 334
180 180 181 177 175 173 168 165 167 173 176 174 183 185 180 180 207 215 209 225 239 253 267 284 286 289 301 353 103 107 169 145 161 173 161 158 186 164 157 155 144 103 16
188 187 184 181 179 177 177 175 172 173 178 179 177 184 185 186 200 210 208 227 250 260 281 286 302 310 337 20 81 101 101 110 138 146 142 142 180 152 155 151 148 144 139
194 191 187 186 185 184 181 175 172 175 178 178 180 183 190 193 190 181 200 229 262 285 324 337 348 353 356 28 64 69 76 93 66 132 130 131 160 134 143 144 138 141 146
199 194 193 191 185 179 176 176 176 174 176 181 182 175 188 191 183 186 218 228 255 280 296 336 13 26 27 37 65 53 102 93 70 83 135 182 168 137 130 119 116 121 129
203 196 190 182 181 183 183 182 181 181 184 182 177 182 187 181 180 201 229 225 226 258 240 77 58 53 59 61 85 81 96 117 116 114 113 101 123 122 123 119 120 122 130
206 197 189 188 190 190 188 187 186 188 185 177 176 178 183 185 193 206 217 208 198 219 313 104 108 84 69 71 76 95 85 110 134 134 136 136 111 106 110 120 131 129 112
200 197 201 203 200 196 192 190 193 188 181 177 178 184 191 195 198 200 199 198 186 174 174 159 181 191 148 103 74 79 80 80 82 106 137 140 140 142 136 124 138 136 115
225 213 213 213 208 204 200 196 194 189 183 178 185 196 197 195 193 193 196 196 192 191 186 168 174 186 148 151 130 109 104 90 71 51 59 102 141 156 147 141 153 143 134
255 237 228 220 213 211 206 199 197 193 183 184 194 195 188 187 192 196 195 194 201 199 178 179 180 203 221 156 142 134 115 112 102 66 29 23 38 79 93 112 130 152 157
271 251 237 229 224 217 207 202 200 188 185 191 194 191 188 190 197 197 189 196 201 194 192 200 187 205 245 178 153 142 130 127 130 92 23 30 37 58 87 72 67 62 105
298 279 261 252 240 223 213 204 190 185 190 194 195 193 189 193 194 190 195 200 195 197 201 205 200 207 244 206 170 151 124 107 102 197 195 141 342 5 127 107 79 47 29
290 271 254 245 248 232 213 195 192 191 194 199 200 197 191 191 191 196 202 198 190 198 203 201 195 200 245 225 185 151 128 114 80 6 48 149 157 299 136 116 101 65 22
320 311 300 284 282 261 209 190 199 196 204 206 204 198 192 191 194 199 199 192 189 198 196 200 201 200 220 218 188 162 145 145 159 11 352 28 117 118 127 128 125 108 15
326 330 325 298 273 266 201 205 206 212 214 209 201 195 194 195 195 193 189 185 186 185 190 197 205 201 205 200 187 170 158 166 166 166 249 317 77 105 118 124 130 142 123
338 337 330 312 298 274 213 224 227 228 218 202 197 197 196 196 192 184 186 180 176 178 189 187 197 211 211 199 189 178 175 167 159 174 188 187 106 103 108 107 102 103 97
331 328 319 314 313 292 243 237 244 234 214 202 204 201 195 195 185 181 183 178 178 182 189 186 192 202 202 201 183 173 169 165 156 166 162 139 111 96 85 84 89 86 86
326 326 324 319 312 302 280 260 257 225 205 211 208 200 192 191 187 184 183 182 185 187 189 189 191 189 187 191 176 157 149 146 138 129 115 102 93 87 81 73 65 67 90
319 319 316 308 306 305 294 287 273 229 215 214 210 201 196 189 186 185 188 191 196 192 187 192 183 179 193 205 187 170 170 166 157 132 104 93 92 87 77 69 64 63 73
316 315 312 308 305 306 299 294 277 238 221 219 212 204 194 188 179 170 158 146 189 198 195 186 176 186 186 177 179 178 174 167 152 132 130 136 136 137 135 123 97 75 77